Location: *
(57.8420°S, 159.8600°W)
Time: 05:24:33
(UTC+00:00)

NOSS 3-2 (C) - Pass Details

Date: 18 May 2021
Orbit: 781 x 1431 km, 63.4° (Epoch: 14 June)

Event Time Altitude Azimuth Distance (km) Brightness Sun altitude
Rises 05:46:22 0° 271° (W) 4,309 8.2 -25.8°
Reaches altitude 10° 05:49:28 10° 266° (W) 3,256 7.2 -26.3°
Maximum altitude 05:57:08 57° 188° (S) 1,315 4.1 -27.3°
Enters shadow 05:58:51 46° 142° (SE) 1,439 4.1 -27.5°
